FLOCK 2K-10

Last updated on Wed Feb 14 2018 16:20:54 GMT+0000 (Coordinated Universal Time)

1 42895U 17042BY 18045.21499043 .00007152 00000-0 20832-3 0 9995 2 42895 96.9928 308.1035 0012649 175.2967 184.8399 15.35597316 32767
UTC large
Height (km)
Speed (km/s)
/
Latitude / Longitude
Inclination (degrees)
Orbital Period (minutes)
Azimuth
Elevation
Range (km)
Doppler Factor

Next 0 passes for location: London (51.5072 / 0.1276)

Sorry there are no passes over London.